Regional Weather Roundup
Issued by NWS

Home | Current Version | Previous Version | Graphics & Text | Print | Product List | Glossary On
Versions: 1 2 3 4 5 6 7 8 9 10 11 12 13 14 15 16 17 18 19 20 21 22 23 24 25 26 27 28 29 30 31 32 33 34 35 36 37 38 39 40 41 42 43 44 45 46 47 48 49 50
000
ASUS45 KCYS 021410
RWRWY

WYOMING REGIONAL WEATHER ROUNDUP
NATIONAL WEATHER SERVICE CHEYENNE WY
800 AM MDT SUN AUG 02 2015

NOTE:  "FAIR" INDICATES FEW OR NO CLOUDS BELOW 12,000 FEET
WITH NO SIGNIFICANT WEATHER AND/OR OBSTRUCTIONS TO VISIBILITY.

WYZ001-021500-
YELLOWSTONE NATIONAL PARK

CITY           SKY/WX    TMP DP  RH WIND       PRES   REMARKS
LK YELLOWSTONE   N/A     46  39  76 CALM      30.35S
W YELLOWSTONE  NOT AVBL

$$
WYZ002>013-054>058-071-098>099-021500-
NORTHERN WYOMING

CITY           SKY/WX    TMP DP  RH WIND       PRES   REMARKS
JACKSON        SUNNY     48  39  71 CALM      30.26R
CODY           FAIR      72  37  28 CALM      30.10R
GREYBULL       FAIR      62  41  46 CALM      30.02R
WORLAND        FAIR      64  36  35 S5        30.03R
SHERIDAN       FAIR      70  45  40 N6        30.00R
BUFFALO        FAIR      74  38  27 W3        30.07S
GILLETTE       FAIR      69  40  34 S5        30.01S
HULETT         FAIR      64  52  63 CALM      30.03S
NEWCASTLE      FAIR      72  52  49 CALM      30.03R

$$
WYZ014>020-022>026-101>103-021500-
CENTRAL WYOMING

CITY           SKY/WX    TMP DP  RH WIND       PRES   REMARKS
BIG PINEY      FAIR      52  34  50 CALM      30.27R
PINEDALE       FAIR      52  36  54 W3        30.27S
DUBOIS         FAIR      54  30  40 NW12      30.28S
LANDER         FAIR      64  36  35 CALM      30.13R
RIVERTON       FAIR      68  31  25 NW16      30.14R
CASPER         FAIR      64  31  28 W6        30.11S
DOUGLAS        FAIR      67  44  43 NW7       30.09S

$$
WYZ021-027>030-104>119-021500-
SOUTHERN WYOMING

CITY           SKY/WX    TMP DP  RH WIND       PRES   REMARKS
EVANSTON       FAIR      64  32  30 NE3       30.24S
KEMMERER       FAIR      55  32  41 N12       30.26S
FORT BRIDGER   SUNNY     66  30  26 W3        30.26S
ROCK SPRINGS   FAIR      63  28  26 CALM      30.22S
DIXON          FAIR      61  40  46 SE6       30.24F
RAWLINS        FAIR      64  38  38 CALM      30.24R
SARATOGA       FAIR      63  37  39 SE3       30.26R
LARAMIE        FAIR      59  42  53 CALM      30.25R
CHEYENNE       FAIR      69  51  52 W7        30.15R
TORRINGTON     FAIR      64  55  72 NW3       30.02S
PINE BLUFFS    FAIR      61  54  77 CALM      30.10S

$$


USA.gov is the U.S. government's official web portal to all federal, state and local government web resources and services.